Location: Newark
(44.4156°N, 12.1972°E)
Time: 07:14:11
(UTC+00:00)

STARLINK-1085 - Pass Details

Date: 30 January 2020
Orbit: 348 x 351 km, 53.0° (Epoch: 22 February)

Event Time Altitude Azimuth Distance (km) Brightness Sun altitude
Rises 18:00:28 0° 303° (WNW) 2,180 7.5 -18.6°
Reaches altitude 10° 18:02:30 10° 302° (WNW) 1,332 6.3 -18.9°
Enters shadow 18:05:16 74° 273° (W) 373 2.8 -19.4°
